Time,TemperatureF,DewpointF,PressureIn,WindDirection,WindDirectionDegrees,WindSpeedMPH,WindSpeedGustMPH,Humidity,HourlyPrecipIn,Conditions,Clouds,dailyrainin,SolarRadiationWatts/m^2,SoftwareType,DateUTC
2013-04-07 00:03:00,72.0,64.0,30.12,NE,50,5.0,6.0,77,0.00,,,0.00,0.000000,,2013-04-07 10:03:00,
2013-04-07 00:12:00,72.0,64.0,30.12,NE,50,5.0,6.0,77,0.00,,,0.00,0.000000,,2013-04-07 10:12:00,
2013-04-07 00:43:00,72.0,64.0,30.11,NE,38,4.0,6.0,77,0.00,,,-99.99,0.000000,,2013-04-07 10:43:00,
2013-04-07 00:53:00,72.0,64.0,30.11,NE,38,4.0,6.0,77,0.00,,,-99.99,0.000000,,2013-04-07 10:53:00,
2013-04-07 01:02:00,72.0,64.0,30.11,NE,38,4.0,6.0,77,0.00,,,-99.99,0.000000,,2013-04-07 11:02:00,
2013-04-07 01:12:00,72.0,64.0,30.11,NE,38,4.0,6.0,77,0.00,,,-99.99,0.000000,,2013-04-07 11:12:00,
2013-04-07 01:43:00,75.0,66.0,30.11,North,355,2.0,6.0,74,0.00,,,0.00,0.000000,,2013-04-07 11:43:00,
2013-04-07 01:53:00,75.0,66.0,30.11,North,355,2.0,6.0,74,0.00,,,0.00,0.000000,,2013-04-07 11:53:00,
2013-04-07 02:02:00,75.0,66.0,30.11,North,355,2.0,6.0,74,0.00,,,0.00,0.000000,,2013-04-07 12:02:00,
2013-04-07 02:12:00,75.0,66.0,30.11,North,355,2.0,6.0,74,0.00,,,0.00,0.000000,,2013-04-07 12:12:00,
2013-04-07 02:43:00,75.0,68.0,30.09,NW,316,2.0,5.0,79,0.00,,,0.00,0.000000,,2013-04-07 12:43:00,
2013-04-07 02:53:00,75.0,68.0,30.09,NW,316,2.0,5.0,79,0.00,,,0.00,0.000000,,2013-04-07 12:53:00,
2013-04-07 03:03:00,75.0,68.0,30.09,NW,316,2.0,5.0,79,0.00,,,0.00,0.000000,,2013-04-07 13:03:00,
2013-04-07 03:12:00,75.0,68.0,30.09,NW,316,2.0,5.0,79,0.00,,,0.00,0.000000,,2013-04-07 13:12:00,
2013-04-07 03:43:00,75.0,68.0,30.07,WNW,300,2.0,6.0,80,0.00,,,0.00,0.000000,,2013-04-07 13:43:00,
2013-04-07 03:53:00,75.0,68.0,30.07,WNW,300,2.0,6.0,80,0.00,,,0.00,0.000000,,2013-04-07 13:53:00,
2013-04-07 04:02:00,75.0,68.0,30.07,WNW,300,2.0,6.0,80,0.00,,,0.00,0.000000,,2013-04-07 14:02:00,
2013-04-07 04:12:00,75.0,68.0,30.07,WNW,300,2.0,6.0,80,0.00,,,0.00,0.000000,,2013-04-07 14:12:00,
2013-04-07 04:44:00,75.0,68.0,30.07,SSW,192,2.0,5.0,78,0.00,,,0.00,0.000000,,2013-04-07 14:44:00,
2013-04-07 04:53:00,75.0,68.0,30.07,SSW,192,2.0,5.0,78,0.00,,,0.00,0.000000,,2013-04-07 14:53:00,
2013-04-07 05:02:00,75.0,68.0,30.07,SSW,192,2.0,5.0,78,0.00,,,0.00,0.000000,,2013-04-07 15:02:00,
2013-04-07 05:12:00,75.0,68.0,30.07,SSW,192,2.0,5.0,78,0.00,,,0.00,0.000000,,2013-04-07 15:12:00,
2013-04-07 05:45:00,74.0,66.0,30.08,ESE,116,5.0,6.0,75,0.00,,,0.00,0.000000,,2013-04-07 15:45:00,
2013-04-07 05:54:00,74.0,66.0,30.08,ESE,116,5.0,6.0,75,0.00,,,0.00,0.000000,,2013-04-07 15:54:00,
2013-04-07 06:03:00,74.0,66.0,30.08,ESE,116,5.0,6.0,75,0.00,,,0.00,0.000000,,2013-04-07 16:03:00,
2013-04-07 06:13:00,74.0,66.0,30.08,ESE,116,5.0,6.0,75,0.00,,,0.00,0.000000,,2013-04-07 16:13:00,
2013-04-07 06:44:00,74.0,64.0,30.11,ESE,117,5.0,7.0,70,0.00,,,0.00,0.000000,,2013-04-07 16:44:00,
2013-04-07 06:54:00,74.0,64.0,30.11,ESE,117,5.0,7.0,70,0.00,,,0.00,0.000000,,2013-04-07 16:54:00,
2013-04-07 07:03:00,74.0,64.0,30.11,ESE,117,5.0,7.0,70,0.00,,,0.00,0.000000,,2013-04-07 17:03:00,
2013-04-07 07:12:00,74.0,64.0,30.11,ESE,117,5.0,7.0,70,0.00,,,0.00,0.000000,,2013-04-07 17:12:00,
2013-04-07 07:43:00,76.0,64.0,30.12,ESE,118,6.0,8.0,67,0.00,,,0.00,52.000000,,2013-04-07 17:43:00,
2013-04-07 07:53:00,76.0,64.0,30.12,ESE,118,6.0,8.0,67,0.00,,,0.00,52.000000,,2013-04-07 17:53:00,
2013-04-07 08:02:00,76.0,64.0,30.12,ESE,118,6.0,8.0,67,0.00,,,0.00,52.000000,,2013-04-07 18:02:00,
2013-04-07 08:12:00,76.0,64.0,30.12,ESE,118,6.0,8.0,67,0.00,,,0.00,52.000000,,2013-04-07 18:12:00,
2013-04-07 08:43:00,80.0,67.0,30.13,SSE,147,6.0,10.0,65,0.00,,,0.00,256.000000,,2013-04-07 18:43:00,
2013-04-07 08:52:00,80.0,67.0,30.13,SSE,147,6.0,10.0,65,0.00,,,0.00,256.000000,,2013-04-07 18:52:00,
2013-04-07 09:02:00,80.0,67.0,30.13,SSE,147,6.0,10.0,65,0.00,,,0.00,256.000000,,2013-04-07 19:02:00,
2013-04-07 09:12:00,80.0,67.0,30.13,SSE,147,6.0,10.0,65,0.00,,,0.00,256.000000,,2013-04-07 19:12:00,
2013-04-07 09:43:00,81.0,68.0,30.15,SSE,161,6.0,11.0,65,0.00,,,0.00,493.000000,,2013-04-07 19:43:00,
2013-04-07 09:54:00,81.0,68.0,30.15,SSE,161,6.0,11.0,65,0.00,,,0.00,493.000000,,2013-04-07 19:54:00,
2013-04-07 10:02:00,81.0,68.0,30.15,SSE,161,6.0,11.0,65,0.00,,,0.00,493.000000,,2013-04-07 20:02:00,
2013-04-07 10:12:00,81.0,68.0,30.15,SSE,161,6.0,11.0,65,0.00,,,0.00,493.000000,,2013-04-07 20:12:00,
2013-04-07 10:44:00,82.0,68.0,30.14,SSW,206,8.0,12.0,63,0.00,,,0.00,765.000000,,2013-04-07 20:44:00,
2013-04-07 10:53:00,82.0,68.0,30.14,SSW,206,8.0,12.0,63,0.00,,,0.00,765.000000,,2013-04-07 20:53:00,
2013-04-07 11:02:00,82.0,68.0,30.14,SSW,206,8.0,12.0,63,0.00,,,0.00,765.000000,,2013-04-07 21:02:00,
2013-04-07 11:12:00,82.0,68.0,30.14,SSW,206,8.0,12.0,63,0.00,,,0.00,765.000000,,2013-04-07 21:12:00,
2013-04-07 11:45:00,82.0,69.0,30.13,SW,231,9.0,12.0,65,0.00,,,0.00,955.000000,,2013-04-07 21:45:00,
2013-04-07 11:54:00,82.0,69.0,30.13,SW,231,9.0,12.0,65,0.00,,,0.00,955.000000,,2013-04-07 21:54:00,
2013-04-07 12:03:00,82.0,69.0,30.13,SW,231,9.0,12.0,65,0.00,,,0.00,955.000000,,2013-04-07 22:03:00,
2013-04-07 12:13:00,82.0,69.0,30.13,SW,231,9.0,12.0,65,0.00,,,0.00,955.000000,,2013-04-07 22:13:00,
2013-04-07 12:44:00,82.0,69.0,30.11,West,264,10.0,14.0,64,0.00,,,0.00,964.000000,,2013-04-07 22:44:00,
2013-04-07 12:53:00,82.0,69.0,30.11,West,264,10.0,14.0,64,0.00,,,0.00,964.000000,,2013-04-07 22:53:00,
2013-04-07 13:03:00,82.0,69.0,30.11,West,264,10.0,14.0,64,0.00,,,0.00,964.000000,,2013-04-07 23:03:00,
2013-04-07 13:12:00,82.0,69.0,30.11,West,264,10.0,14.0,64,0.00,,,0.00,964.000000,,2013-04-07 23:12:00,
2013-04-07 13:43:00,81.0,69.0,30.08,West,273,9.0,15.0,68,0.00,,,0.00,775.000000,,2013-04-07 23:43:00,
2013-04-07 13:52:00,81.0,69.0,30.08,West,273,9.0,15.0,68,0.00,,,0.00,775.000000,,2013-04-07 23:52:00,
2013-04-07 14:02:00,81.0,69.0,30.08,West,273,9.0,15.0,68,0.00,,,0.00,775.000000,,2013-04-08 00:02:00,
2013-04-07 14:12:00,81.0,69.0,30.08,West,273,9.0,15.0,68,0.00,,,0.00,775.000000,,2013-04-08 00:12:00,
2013-04-07 14:43:00,80.0,68.0,30.06,WNW,283,8.0,12.0,68,0.00,,,0.00,332.000000,,2013-04-08 00:43:00,
2013-04-07 14:52:00,80.0,68.0,30.06,WNW,283,8.0,12.0,68,0.00,,,0.00,332.000000,,2013-04-08 00:52:00,
2013-04-07 15:02:00,80.0,68.0,30.06,WNW,283,8.0,12.0,68,0.00,,,0.00,332.000000,,2013-04-08 01:02:00,
2013-04-07 15:12:00,80.0,68.0,30.06,WNW,283,8.0,12.0,68,0.00,,,0.00,332.000000,,2013-04-08 01:12:00,
2013-04-07 15:44:00,82.0,69.0,30.06,WNW,282,9.0,12.0,64,0.00,,,0.00,552.000000,,2013-04-08 01:44:00,
2013-04-07 15:55:00,82.0,69.0,30.06,WNW,282,9.0,12.0,64,0.00,,,0.00,552.000000,,2013-04-08 01:55:00,
2013-04-07 16:02:00,82.0,69.0,30.06,WNW,282,9.0,12.0,64,0.00,,,0.00,552.000000,,2013-04-08 02:02:00,
2013-04-07 16:12:00,82.0,69.0,30.06,WNW,282,9.0,12.0,64,0.00,,,0.00,552.000000,,2013-04-08 02:12:00,
2013-04-07 16:48:00,82.0,65.0,30.05,West,280,8.0,12.0,56,0.00,,,0.00,703.000000,,2013-04-08 02:48:00,
2013-04-07 16:53:00,82.0,65.0,30.05,West,280,8.0,12.0,56,0.00,,,0.00,703.000000,,2013-04-08 02:53:00,
2013-04-07 17:05:00,82.0,65.0,30.05,West,280,8.0,12.0,56,0.00,,,0.00,703.000000,,2013-04-08 03:05:00,
2013-04-07 17:13:00,82.0,65.0,30.05,West,280,8.0,12.0,56,0.00,,,0.00,703.000000,,2013-04-08 03:13:00,
2013-04-07 17:55:00,82.0,64.0,30.04,WNW,302,8.0,12.0,55,0.00,,,0.00,442.000000,,2013-04-08 03:55:00,
2013-04-07 18:02:00,82.0,64.0,30.04,WNW,302,8.0,12.0,55,0.00,,,0.00,442.000000,,2013-04-08 04:02:00,
2013-04-07 18:12:00,82.0,64.0,30.04,WNW,302,8.0,12.0,55,0.00,,,0.00,442.000000,,2013-04-08 04:12:00,
2013-04-07 18:44:00,79.0,64.0,30.04,WNW,287,7.0,12.0,61,0.00,,,0.00,154.000000,,2013-04-08 04:44:00,
2013-04-07 18:52:00,79.0,64.0,30.04,WNW,287,7.0,12.0,61,0.00,,,0.00,154.000000,,2013-04-08 04:52:00,
2013-04-07 19:02:00,79.0,64.0,30.04,WNW,287,7.0,12.0,61,0.00,,,0.00,154.000000,,2013-04-08 05:02:00,
2013-04-07 19:12:00,79.0,64.0,30.04,WNW,287,7.0,12.0,61,0.00,,,0.00,154.000000,,2013-04-08 05:12:00,
2013-04-07 19:42:00,77.0,63.0,30.05,West,281,5.0,9.0,63,0.00,,,-99.99,11.000000,,2013-04-08 05:42:00,
2013-04-07 19:52:00,77.0,63.0,30.05,West,281,5.0,9.0,63,0.00,,,-99.99,11.000000,,2013-04-08 05:52:00,
2013-04-07 20:02:00,77.0,63.0,30.05,West,281,5.0,9.0,63,0.00,,,-99.99,11.000000,,2013-04-08 06:02:00,
2013-04-07 20:12:00,77.0,63.0,30.05,West,281,5.0,9.0,63,0.00,,,-99.99,11.000000,,2013-04-08 06:12:00,
2013-04-07 20:43:00,76.0,64.0,30.06,NE,42,2.0,6.0,66,0.00,,,0.00,0.000000,,2013-04-08 06:43:00,
2013-04-07 20:52:00,76.0,64.0,30.06,NE,42,2.0,6.0,66,0.00,,,0.00,0.000000,,2013-04-08 06:52:00,
2013-04-07 21:02:00,76.0,64.0,30.06,NE,42,2.0,6.0,66,0.00,,,0.00,0.000000,,2013-04-08 07:02:00,
2013-04-07 21:12:00,76.0,64.0,30.06,NE,42,2.0,6.0,66,0.00,,,0.00,0.000000,,2013-04-08 07:12:00,
2013-04-07 21:42:00,76.0,64.0,30.08,East,97,5.0,7.0,66,0.00,,,0.00,0.000000,,2013-04-08 07:42:00,
2013-04-07 21:52:00,76.0,64.0,30.08,East,97,5.0,7.0,66,0.00,,,0.00,0.000000,,2013-04-08 07:52:00,
2013-04-07 22:02:00,76.0,64.0,30.08,East,97,5.0,7.0,66,0.00,,,0.00,0.000000,,2013-04-08 08:02:00,
2013-04-07 22:11:00,76.0,64.0,30.08,East,97,5.0,7.0,66,0.00,,,0.00,0.000000,,2013-04-08 08:11:00,
2013-04-07 22:43:00,73.0,62.0,30.09,East,96,3.0,7.0,69,0.00,,,0.00,0.000000,,2013-04-08 08:43:00,
2013-04-07 22:52:00,73.0,62.0,30.09,East,96,3.0,7.0,69,0.00,,,0.00,0.000000,,2013-04-08 08:52:00,
2013-04-07 23:02:00,73.0,62.0,30.09,East,96,3.0,7.0,69,0.00,,,0.00,0.000000,,2013-04-08 09:02:00,
2013-04-07 23:12:00,73.0,62.0,30.09,East,96,3.0,7.0,69,0.00,,,0.00,0.000000,,2013-04-08 09:12:00,
2013-04-07 23:43:00,73.0,62.0,30.08,East,101,4.0,7.0,68,0.00,,,0.00,0.000000,,2013-04-08 09:43:00,
2013-04-07 23:53:00,73.0,62.0,30.08,East,101,4.0,7.0,68,0.00,,,0.00,0.000000,,2013-04-08 09:53:00,